Williamsport, PA

5:11 AM EDT on April 30, 2017 (GMT -0400)
Williamsport Rgnl

Weather History for KIPT - March, 2015

Change the Weather History Date:

Wednesday, March 11, 2015

  Actual Average Record
Temperature  
Mean Temperature 45 °F 36 °F  
Max Temperature 54 °F 46 °F 71 °F (1977)
Min Temperature 36 °F 27 °F 4 °F (1996)
Degree Days  
Heating Degree Days 20 29  
Month to date heating degree days 401 334  
Since 1 July heating degree days 5038 4801  
Cooling Degree Days 0 0  
Month to date cooling degree days 0 0  
Year to date cooling degree days 0 0  
Moisture  
Dew Point 35 °F    
Average Humidity 72    
Maximum Humidity 100    
Minimum Humidity 43    
Precipitation  
Precipitation T in 0.09 in 2.25 in (1962)
Month to date precipitation 0.84 0.94  
Year to date precipitation 3.63 5.98  
Snow  
Snow 0.00 in 0.30 in 4.30 in (1934)
Month to date snowfall 3.3 3.3  
Since 1 July snowfall 36.3 31.3  
Snow Depth T in    
Sea Level Pressure  
Sea Level Pressure 30.05 in    
Wind  
Wind Speed 8 mph (West)    
Max Wind Speed 18 mph    
Max Gust Speed 24 mph    
Visibility 5 miles    
Events Fog , Rain    
T = Trace of Precipitation, MM = Missing Value Source: NWS Daily Summary

Daily Weather History Graph

Daily Weather History Graph

Search for Another Location

Airport or City:

Trip Planner

Search our weather history database for the weather conditions in past years. The results will help you decide how hot, cold, wet, or windy it might be!

Date:

Astronomy

Mar. 11, 2015 Rise Set
Actual Time 7:26 AM EDT 7:09 PM EDT
Civil Twilight 6:58 AM EDT 7:37 PM EDT
Nautical Twilight 6:27 AM EDT 8:09 PM EDT
Astronomical Twilight 5:54 AM EDT 8:41 PM EDT
Moon No Moon Rise 10:30 AM EDT (3/11)
Length of Visible Light 12h 38m
Length of Day
11h 43m
Waning Gibbous, 71% of the Moon is Illuminated
Mar 11
Waning Gibbous
Mar 13
Last Quarter
Mar 20
New
Mar 27
First Quarter
Apr 4
Full

Hourly Weather History & Observations

Time (EDT) Temp. Windchill Dew Point Humidity Pressure Visibility Wind Dir Wind Speed Gust Speed Precip Events Conditions
12:54 AM 37.0 °F 32.4 °F 35.1 °F 93% 30.00 in 0.2 mi West 5.8 mph - 0.02 in Fog , Rain Light Rain
1:06 AM 37.0 °F 32.4 °F 35.1 °F 93% 29.98 in 0.5 mi West 5.8 mph - 0.00 in Fog , Rain Light Rain
1:42 AM 36.0 °F 33.3 °F 35.1 °F 97% 29.98 in 0.2 mi SW 3.5 mph - 0.00 in Fog Fog
1:54 AM 36.0 °F - 35.1 °F 97% 29.99 in 0.2 mi Calm Calm - 0.00 in Fog Fog
2:54 AM 36.0 °F 31.1 °F 35.1 °F 97% 29.99 in 0.2 mi NW 5.8 mph - N/A Fog Fog
3:01 AM 36.0 °F 32.1 °F 35.1 °F 97% 29.98 in 0.5 mi NW 4.6 mph - N/A Fog Fog
3:54 AM 36.0 °F 32.1 °F 34.0 °F 93% 30.00 in 0.5 mi WNW 4.6 mph - N/A Fog Fog
4:03 AM 37.0 °F 31.0 °F 34.0 °F 89% 29.99 in 2.0 mi West 8.1 mph - N/A   Overcast
4:12 AM 37.0 °F 30.4 °F 35.1 °F 93% 29.99 in 4.0 mi WNW 9.2 mph - N/A   Overcast
4:54 AM 37.0 °F - 36.0 °F 96% 29.99 in 4.0 mi Calm Calm - N/A   Overcast
5:00 AM 36.0 °F - 36.0 °F 100% 29.98 in 2.5 mi Calm Calm - N/A   Overcast
5:26 AM 37.0 °F - 34.0 °F 89% 29.99 in 2.0 mi Calm Calm - N/A   Overcast
5:54 AM 37.0 °F 34.5 °F 35.1 °F 93% 30.01 in 2.0 mi WNW 3.5 mph - N/A   Overcast
6:04 AM 37.0 °F 33.3 °F 35.1 °F 93% 30.00 in 3.0 mi West 4.6 mph - N/A   Overcast
6:54 AM 37.0 °F - 35.1 °F 93% 30.03 in 3.0 mi Calm Calm - N/A   Overcast
7:26 AM 36.0 °F - 35.1 °F 97% 30.02 in 1.8 mi Calm Calm - N/A   Overcast
7:39 AM 37.0 °F - 35.1 °F 93% 30.04 in 1.8 mi Calm Calm - N/A   Overcast
7:54 AM 36.0 °F 33.3 °F 35.1 °F 97% 30.04 in 1.0 mi South 3.5 mph - N/A   Overcast
8:03 AM 37.0 °F 34.5 °F 34.0 °F 89% 30.03 in 0.5 mi North 3.5 mph - N/A Fog Fog
8:11 AM 37.0 °F - 36.0 °F 96% 30.03 in 2.0 mi Calm Calm - N/A   Mostly Cloudy
8:19 AM 36.0 °F - 35.1 °F 97% 30.03 in 0.8 mi Calm Calm - N/A   Mostly Cloudy
8:23 AM 37.0 °F - 36.0 °F 96% 30.03 in 1.0 mi Calm Calm - N/A   Mist
8:31 AM 37.9 °F - 36.0 °F 93% 30.03 in 1.5 mi Calm Calm - N/A   Partly Cloudy
8:54 AM 37.9 °F - 35.1 °F 89% 30.05 in 5.0 mi Calm Calm - N/A   Clear
9:54 AM 41.0 °F 36.4 °F 37.0 °F 86% 30.07 in 5.0 mi WSW 6.9 mph - N/A   Clear
10:54 AM 43.0 °F 38.2 °F 37.9 °F 82% 30.08 in 8.0 mi West 8.1 mph - N/A   Clear
11:54 AM - - - N/A% 30.08 in - West 10.4 mph - N/A   Unknown
12:20 PM - - - N/A% 30.07 in 10.0 mi West 9.2 mph - N/A   Mostly Cloudy
12:43 PM 48.0 °F - 39.9 °F 74% 30.08 in 10.0 mi West 9.2 mph - N/A   Partly Cloudy
12:54 PM 48.0 °F - 39.0 °F 71% 30.09 in 10.0 mi West 9.2 mph - N/A   Partly Cloudy
1:54 PM 50.0 °F - 37.9 °F 63% 30.07 in 10.0 mi West 15.0 mph - N/A   Unknown
2:54 PM 51.1 °F - 37.9 °F 61% 30.05 in 10.0 mi West 15.0 mph - N/A   Clear
3:54 PM 53.1 °F - 37.0 °F 55% 30.05 in 10.0 mi West 16.1 mph - N/A   Clear
4:54 PM 53.6 °F - 35.6 °F 51% 30.04 in 10.0 mi West 11.5 mph - N/A   Clear
5:54 PM 53.1 °F - 35.1 °F 50% 30.05 in 10.0 mi West 10.4 mph - N/A   Clear
6:54 PM 51.1 °F - 34.0 °F 52% 30.08 in 10.0 mi West 8.1 mph - N/A   Clear
7:54 PM 46.9 °F - 34.0 °F 61% 30.12 in 10.0 mi West 9.2 mph - N/A   Clear
8:54 PM 44.1 °F 38.1 °F 35.1 °F 71% 30.16 in 10.0 mi WSW 11.5 mph - N/A   Clear
9:54 PM 42.1 °F 36.6 °F 34.0 °F 73% 30.20 in 10.0 mi West 9.2 mph - N/A   Clear
10:54 PM 42.1 °F 37.1 °F 21.0 °F 43% 30.23 in 10.0 mi West 8.1 mph - N/A   Clear
11:54 PM 39.9 °F 34.5 °F 21.9 °F 49% 30.24 in 10.0 mi West 8.1 mph - N/A   Clear